[[{"header":{"parameterUnit":"m.s-1","parameterCategory":1,"la1":30.2992,"la2":30.254,"lo1":-89.0895,"lo2":-89.0443,"dy":0.0025,"dx":0.0025,"nx":19,"ny":19,"refTime":"2026-03-17T09:00:00:Z","depth":0,"parameterNumber":2,"parameterNumberName":"U-component_of_WINDS"},"data":[0,0,0,-3.0971,-3.0972,-3.1005,-3.1005,-3.1082,-3.1082,0,0,0,0,0,0,0,0,0,0,0,-3.0979,-3.098,-3.0971,-3.0972,-3.1005,-3.1005,-3.1081,-3.1083,0,0,0,0,0,0,0,0,0,0,0,-3.0979,-3.098,-3.0982,-3.0972,-3.1005,-3.1005,-3.1081,-3.1044,0,0,0,0,0,0,0,0,0,0,-3.1006,-3.1032,-3.098,-3.0982,-3.0972,-3.1005,-3.1005,-3.1042,-3.1047,-3.108,0,-3.1113,0,-3.1099,-3.109,-3.109,0,0,0,-3.0958,-3.1028,-3.102,-3.0982,-3.0973,-3.1005,-3.0986,-3.1044,-3.105,-3.1087,-3.1114,-3.1116,-3.1101,-3.109,-3.1091,-3.1328,-3.1329,0,0,-3.0957,-3.0995,-3.1017,-3.1025,-3.102,-3.0986,-3.0988,-3.1047,-3.108,-3.1114,-3.1117,-3.1102,-3.1091,-3.1092,-3.1326,-3.1328,0,0,0,-3.096,-3.0995,-3.0985,-3.1022,-3.1026,-3.0987,-3.0989,-3.1077,-3.1071,-3.1118,-3.1103,-3.1092,-3.1093,-3.1324,-3.1327,-3.1452,0,0,0,-3.0959,-3.0997,-3.0985,-3.1009,-3.1025,-3.1052,-3.1019,-3.1067,-3.1072,-3.1102,-3.1092,-3.1094,-3.1322,-3.1325,-3.1444,-3.1506,0,0,0,-3.0971,-3.0998,-3.1009,-3.1011,-3.1027,-3.105,-3.1046,-3.1067,-3.1064,-3.109,-3.1094,-3.1321,-3.1325,-3.1438,-3.1494,-3.1582,0,0,0,-3.0995,-3.1119,-3.1012,-3.1144,-3.1027,-3.1126,-3.1045,-3.1117,-3.1155,-3.1092,-3.1322,-3.1327,-3.1435,-3.1487,-3.1575,-3.1664,-3.1704,0,0,-3.1173,-3.1142,-3.1216,-3.1122,-3.1251,-3.1118,-3.1266,-3.1263,-3.123,-3.1297,-3.1303,-3.1447,-3.1493,-3.158,-3.1911,-3.1943,0,0,0,-3.1286,-3.1341,-3.1366,-3.1404,-3.1404,-3.1411,-3.1381,-3.1381,-3.1437,-3.1272,-3.1499,-3.1526,-3.1575,-3.1616,-3.1644,-3.1685,-3.1346,-3.1346,-3.1345,-3.1594,-3.1546,-3.1668,-3.1624,-3.1661,-3.1631,-3.1658,-3.1652,-3.159,-3.1646,-3.1666,-3.1873,-3.1922,-3.1943,-3.1987,-3.1707,-3.1708,-3.1708,-3.1708,-3.1853,-3.1924,-3.1841,-3.193,-3.1879,-3.1953,-3.193,-3.1885,-3.1948,-3.1852,-3.1894,-3.1796,-3.1979,-3.2015,-3.1717,-3.1716,-3.1715,-3.1714,-3.1713,-3.2051,-3.2077,-3.2074,-3.2125,-3.217,-3.2121,-3.2187,-3.2137,-3.2091,-3.2131,-3.215,-3.2148,-3.2142,-3.2143,-3.2144,-3.2145,-3.2145,-3.2146,-3.2146,-3.226,-3.2252,-3.2313,-3.2326,-3.2345,-3.2364,-3.2336,-3.2354,-3.2361,-3.232,-3.232,-3.2257,-3.2005,-3.1945,-3.2157,-3.2155,-3.2154,-3.2153,-3.2152,-3.2544,-3.2472,-3.2566,-3.2586,-3.2598,-3.2649,-3.2584,-3.2626,-3.2633,-3.2668,-3.2596,-3.2417,-3.2381,-3.2359,-3.2309,-3.2603,-3.2603,-3.2603,-3.2603,-3.2714,-3.269,-3.2777,-3.2812,-3.284,-3.2792,-3.2904,-3.2885,-3.2854,-3.2856,-3.2806,-3.2734,-3.2714,-3.2691,-3.2661,-3.2614,-3.2979,-3.2979,-3.298,-3.2887,-3.2865,-3.2969,-3.2936,-3.2943,-3.2952,-3.3056,-3.3102,-3.3051,-3.2994,-3.2858,-3.2842,-3.2726,-3.269,-3.2632,-3.2588,-3.25,0,0]},{"header":{"parameterUnit":"m.s-1","parameterCategory":1,"la1":30.2992,"la2":30.254,"lo1":-89.0895,"lo2":-89.0443,"dy":0.0025,"dx":0.0025,"nx":19,"ny":19,"refTime":"2026-03-17T09:00:00:Z","depth":0,"parameterNumber":3,"parameterNumberName":"V-component_of_WINDS"},"data":[0,0,0,-0.0813,-0.0815,-0.0914,-0.0914,-0.1036,-0.1037,0,0,0,0,0,0,0,0,0,0,0,-0.078,-0.0781,-0.0813,-0.0815,-0.0914,-0.0914,-0.1035,-0.1037,0,0,0,0,0,0,0,0,0,0,0,-0.078,-0.078,-0.0781,-0.0816,-0.0914,-0.0914,-0.1035,-0.0963,0,0,0,0,0,0,0,0,0,0,-0.0868,-0.0833,-0.078,-0.0781,-0.0816,-0.0914,-0.0914,-0.0959,-0.0967,-0.0989,0,-0.1005,0,-0.1023,-0.1044,-0.1045,0,0,0,-0.0819,-0.0826,-0.0856,-0.0781,-0.0817,-0.0913,-0.087,-0.0964,-0.0973,-0.0999,-0.1007,-0.1012,-0.1025,-0.1045,-0.1046,-0.1153,-0.1153,0,0,-0.0813,-0.0796,-0.085,-0.0862,-0.0845,-0.0867,-0.0873,-0.0969,-0.0978,-0.1007,-0.1015,-0.1027,-0.1046,-0.1047,-0.1153,-0.1153,0,0,0,-0.0795,-0.0792,-0.082,-0.0857,-0.0875,-0.087,-0.0877,-0.0973,-0.0984,-0.1016,-0.1028,-0.1047,-0.1048,-0.1152,-0.1153,-0.1153,0,0,0,-0.0792,-0.0782,-0.0817,-0.0808,-0.0873,-0.0925,-0.0879,-0.0977,-0.0988,-0.1027,-0.1047,-0.1049,-0.1152,-0.1153,-0.1152,-0.1156,0,0,0,-0.0775,-0.078,-0.0792,-0.0806,-0.0848,-0.0924,-0.094,-0.098,-0.0996,-0.1045,-0.1049,-0.1152,-0.1153,-0.1151,-0.1155,-0.118,0,0,0,-0.0752,-0.0791,-0.0792,-0.0841,-0.0847,-0.0922,-0.094,-0.0997,-0.1039,-0.1047,-0.1152,-0.1153,-0.1151,-0.1154,-0.1179,-0.1198,-0.1204,0,0,-0.0792,-0.0796,-0.0826,-0.0829,-0.09,-0.0909,-0.098,-0.1036,-0.1057,-0.112,-0.1123,-0.1152,-0.1155,-0.1179,-0.1241,-0.1246,0,0,0,-0.0833,-0.0854,-0.0877,-0.0915,-0.0957,-0.0994,-0.104,-0.1061,-0.1115,-0.1085,-0.1168,-0.117,-0.1185,-0.1195,-0.1199,-0.1213,-0.1156,-0.1156,-0.1156,-0.0867,-0.089,-0.0941,-0.0977,-0.1013,-0.106,-0.1092,-0.1128,-0.1142,-0.1161,-0.1181,-0.1215,-0.1226,-0.1229,-0.1244,-0.1192,-0.1192,-0.1192,-0.1192,-0.0929,-0.0963,-0.0979,-0.1035,-0.1059,-0.1107,-0.1153,-0.1161,-0.121,-0.1203,-0.1217,-0.1208,-0.1233,-0.1247,-0.1192,-0.1192,-0.1192,-0.1192,-0.1192,-0.0954,-0.0975,-0.0998,-0.1055,-0.1096,-0.1131,-0.1176,-0.1197,-0.1218,-0.1232,-0.1255,-0.1255,-0.1259,-0.1241,-0.1241,-0.1241,-0.1241,-0.1241,-0.1242,-0.0972,-0.0998,-0.1033,-0.108,-0.1107,-0.1145,-0.1191,-0.1219,-0.1255,-0.1267,-0.1267,-0.128,-0.123,-0.1218,-0.1244,-0.1243,-0.1243,-0.1243,-0.1243,-0.1029,-0.1019,-0.1073,-0.11,-0.1156,-0.1196,-0.1222,-0.1276,-0.1302,-0.1324,-0.1333,-0.1292,-0.1298,-0.1295,-0.1285,-0.1326,-0.1326,-0.1326,-0.1327,-0.1051,-0.1055,-0.1115,-0.1156,-0.1199,-0.1227,-0.1289,-0.1324,-0.1361,-0.1378,-0.1375,-0.1363,-0.1359,-0.1368,-0.1363,-0.1354,-0.1412,-0.1412,-0.1412,-0.1087,-0.1096,-0.1144,-0.1177,-0.1223,-0.1262,-0.132,-0.1368,-0.1407,-0.1416,-0.1393,-0.1389,-0.137,-0.1363,-0.1373,-0.1366,-0.135,0,0]}]]